Simultaneous Nadir Overpasses (SNOs) Predictions

Prediction of SNOs between NOAA-20 and AQUA Satellite Orbit:

Table of predicted SNOs for the next 14.0 days since TLE Epoch: 2/1/2019
Index Date (NOAA-20) Time (NOAA-20) Lat,Lon (NOAA-20) SZA (NOAA-20 ) Date (AQUA) Time (AQUA) Lat,Lon (AQUA) SZA (AQUA ) Distance(km) Time Diff (sec)
1 02/03/2019 13:39:49 74.87,-149.20 115.34 02/03/2019 13:40:55 74.87,-149.20 115.28 0.10 66
2 02/03/2019 14:30:11 -76.00, 21.60 66.00 02/03/2019 14:30:00 -76.00, 21.62 66.00 0.86 11
3 02/06/2019 05:56:40 75.15, -32.62 114.24 02/06/2019 05:57:19 75.16, -32.56 114.19 1.68 39
4 02/06/2019 06:47:04 -76.17, 137.98 66.99 02/06/2019 06:46:26 -76.19, 138.08 66.98 2.92 38
5 02/08/2019 22:13:19 75.94, 85.64 112.50 02/08/2019 22:13:32 75.93, 85.54 112.51 2.90 13
6 02/08/2019 23:03:47 -76.75,-104.10 68.51 02/08/2019 23:02:43 -76.74,-104.15 68.44 1.44 64
7 02/11/2019 13:39:56 -74.81, 30.63 67.02 02/11/2019 13:40:59 -74.81, 30.65 67.08 0.56 63
8 02/11/2019 14:30:10 76.21,-157.67 111.33 02/11/2019 14:29:56 76.20,-157.74 111.36 2.08 14
9 02/14/2019 05:56:45 -75.18, 147.47 68.32 02/14/2019 05:57:21 -75.19, 147.53 68.37 1.76 36




NCC Satellite Simultaneous Nadir Overpasses (SNOs) Prediction Service
